sat.trackr.live / text

‹ back to catalog

STARLINK-11677 [DTC]

NORAD 63751 · 2025-089A

PAYLOAD ACTIVE UNKNOWN

§ Identity

Operator
Country
US
Launch date
2025-04-29
Launch site
AFETR
Launch vehicle
Mass (kg)
RCS (m²)

Purposes: comms

External: N2YO · Heavens-Above · Gunter

§ Orbital elements

Epoch: 2026-09-20T22:00:03.000096Z

Period
91.67 min
Inclination
43.0002°
Eccentricity
0.0001436
Mean motion
15.70830311 rev/d
Perigee alt
355.6 km
Apogee alt
357.5 km
Semi-major
6,734.7 km
B*
-4.2982e-5
RAAN
195.7941°
Arg perigee
267.6094°
Mean anomaly
183.1143°
Rev number
599

§ Raw data

STARLINK-11677 [DTC]1 63751U 25089A   26263.91670139 -.00005957  00000+0 -42982-4 0  99972 63751  43.0002 195.7941 0001436 267.6094 183.1143 15.70830311  5990

JSON: /api/v1/satellites/63751 · /tle

For live sub-satellite position, see the globe view (requires WebGL).

§ Visibility from observer

Set your observer location to see the next 7 days of passes ≥ 10°. The values pass through the URL so the page stays shareable.

No JS? Fill the form by hand. The geolocation button needs JavaScript.